ITUPSAT1

Last updated on Mon Sep 21 2026 00:03:14 GMT+0000 (Coordinated Universal Time)

1 35935U 09051E 26263.19243246 .00000456 00000+0 10381-3 0 9990 2 35935 98.3947 171.2198 0006545 311.8090 48.2551 14.60556516902609
UTC large
Height (km)
Speed (km/s)
/
Latitude / Longitude
Inclination (degrees)
Orbital Period (minutes)
Azimuth
Elevation
Range (km)
Doppler Factor

Next 0 passes for location: London (51.5072 / 0.1276)

No passes found over London.
ITUPSAT1